Time,TemperatureF,DewpointF,PressureIn,WindDirection,WindDirectionDegrees,WindSpeedMPH,WindSpeedGustMPH,Humidity,HourlyPrecipIn,Conditions,Clouds,dailyrainin,SoftwareType,DateUTC
2013-11-13 00:00:00,21.7,16.9,30.66,West,280,5.0,7.0,81,0.00,,,0.00,meteohub,2013-11-13 06:00:00,
2013-11-13 00:05:00,21.9,17.1,30.66,WNW,288,4.0,9.0,81,0.00,,,0.00,meteohub,2013-11-13 06:05:00,
2013-11-13 00:10:00,22.3,17.4,30.66,WNW,295,7.0,9.0,81,0.00,,,0.00,meteohub,2013-11-13 06:10:00,
2013-11-13 00:15:00,22.5,17.2,30.66,WNW,286,8.0,11.0,80,0.00,,,0.00,meteohub,2013-11-13 06:15:00,
2013-11-13 00:20:00,22.5,16.9,30.66,WNW,294,6.0,11.0,79,0.00,,,0.00,meteohub,2013-11-13 06:20:00,
2013-11-13 00:25:00,22.3,16.7,30.66,WNW,292,4.0,11.0,79,0.00,,,0.00,meteohub,2013-11-13 06:25:00,
2013-11-13 00:31:00,22.1,16.5,30.66,West,280,5.0,10.0,79,0.00,,,0.00,meteohub,2013-11-13 06:31:00,
2013-11-13 00:36:00,21.9,16.7,30.66,WNW,282,2.0,10.0,80,0.00,,,0.00,meteohub,2013-11-13 06:36:00,
2013-11-13 00:41:00,21.9,16.7,30.65,NW,304,4.0,10.0,80,0.00,,,0.00,meteohub,2013-11-13 06:41:00,
2013-11-13 00:46:00,21.7,16.5,30.65,NW,308,2.0,10.0,80,0.00,,,0.00,meteohub,2013-11-13 06:46:00,
2013-11-13 00:51:00,21.6,16.3,30.65,WNW,298,1.0,7.0,80,0.00,,,0.00,meteohub,2013-11-13 06:51:00,
2013-11-13 00:56:00,21.6,16.3,30.65,WNW,298,0.0,11.0,80,0.00,,,0.00,meteohub,2013-11-13 06:56:00,
2013-11-13 01:01:00,21.6,16.3,30.64,NW,305,5.0,11.0,80,0.00,,,0.00,meteohub,2013-11-13 07:01:00,
2013-11-13 01:06:00,21.6,16.3,30.64,WNW,286,4.0,11.0,80,0.00,,,0.00,meteohub,2013-11-13 07:06:00,
2013-11-13 01:11:00,21.4,16.2,30.64,WNW,294,2.0,9.0,80,0.00,,,0.00,meteohub,2013-11-13 07:11:00,
2013-11-13 01:16:00,21.0,16.2,30.65,WNW,289,1.0,8.0,81,0.00,,,0.00,meteohub,2013-11-13 07:16:00,
2013-11-13 01:21:00,21.0,16.2,30.64,WNW,286,4.0,7.0,81,0.00,,,0.00,meteohub,2013-11-13 07:21:00,
2013-11-13 01:26:00,21.0,16.2,30.64,WNW,303,0.0,7.0,81,0.00,,,0.00,meteohub,2013-11-13 07:26:00,
2013-11-13 01:31:00,21.0,16.2,30.64,WNW,298,0.0,7.0,81,0.00,,,0.00,meteohub,2013-11-13 07:31:00,
2013-11-13 01:37:00,20.8,16.0,30.64,WNW,293,0.0,7.0,81,0.00,,,0.00,meteohub,2013-11-13 07:37:00,
2013-11-13 01:42:00,20.5,15.6,30.64,West,273,0.0,12.0,81,0.00,,,0.00,meteohub,2013-11-13 07:42:00,
2013-11-13 01:47:00,20.1,15.3,30.64,West,273,0.0,12.0,81,0.00,,,0.00,meteohub,2013-11-13 07:47:00,
2013-11-13 01:52:00,19.8,15.1,30.65,West,271,0.0,12.0,82,0.00,,,0.00,meteohub,2013-11-13 07:52:00,
2013-11-13 01:57:00,19.6,14.9,30.65,West,271,0.0,4.0,82,0.00,,,0.00,meteohub,2013-11-13 07:57:00,
2013-11-13 02:02:00,19.2,14.9,30.64,SW,233,1.0,4.0,83,0.00,,,0.00,meteohub,2013-11-13 08:02:00,
2013-11-13 02:07:00,19.0,15.1,30.64,WSW,254,0.0,5.0,84,0.00,,,0.00,meteohub,2013-11-13 08:07:00,
2013-11-13 02:12:00,19.0,15.1,30.64,WSW,256,0.0,5.0,84,0.00,,,0.00,meteohub,2013-11-13 08:12:00,
2013-11-13 02:17:00,18.9,14.9,30.64,SW,233,0.0,5.0,84,0.00,,,0.00,meteohub,2013-11-13 08:17:00,
2013-11-13 02:22:00,18.9,14.9,30.64,WSW,240,0.0,5.0,84,0.00,,,0.00,meteohub,2013-11-13 08:22:00,
2013-11-13 02:27:00,18.9,14.9,30.64,WSW,252,1.0,2.0,84,0.00,,,0.00,meteohub,2013-11-13 08:27:00,
2013-11-13 02:32:00,18.9,14.9,30.64,WSW,252,0.0,4.0,84,0.00,,,0.00,meteohub,2013-11-13 08:32:00,
2013-11-13 02:37:00,18.9,14.9,30.64,West,276,0.0,4.0,84,0.00,,,0.00,meteohub,2013-11-13 08:37:00,
2013-11-13 02:42:00,19.0,15.1,30.64,West,280,0.0,6.0,84,0.00,,,0.00,meteohub,2013-11-13 08:42:00,
2013-11-13 02:47:00,19.2,15.3,30.64,WNW,285,4.0,7.0,84,0.00,,,0.00,meteohub,2013-11-13 08:47:00,
2013-11-13 02:52:00,19.8,15.8,30.64,WNW,303,2.0,7.0,84,0.00,,,0.00,meteohub,2013-11-13 08:52:00,
2013-11-13 02:57:00,19.8,15.4,30.64,West,276,2.0,6.0,83,0.00,,,0.00,meteohub,2013-11-13 08:57:00,
2013-11-13 03:02:00,19.8,15.1,30.64,West,279,0.0,8.0,82,0.00,,,0.00,meteohub,2013-11-13 09:02:00,
2013-11-13 03:07:00,19.8,15.4,30.64,SW,227,0.0,8.0,83,0.00,,,0.00,meteohub,2013-11-13 09:07:00,
2013-11-13 03:12:00,19.8,15.4,30.63,West,267,0.0,7.0,83,0.00,,,0.00,meteohub,2013-11-13 09:12:00,
2013-11-13 03:17:00,19.6,15.3,30.63,West,269,4.0,7.0,83,0.00,,,0.00,meteohub,2013-11-13 09:17:00,
2013-11-13 03:22:00,19.2,14.9,30.63,West,279,2.0,7.0,83,0.00,,,0.00,meteohub,2013-11-13 09:22:00,
2013-11-13 03:27:00,19.2,15.3,30.63,WSW,247,0.0,6.0,84,0.00,,,0.00,meteohub,2013-11-13 09:27:00,
2013-11-13 03:32:00,19.0,15.1,30.63,WNW,290,0.0,6.0,84,0.00,,,0.00,meteohub,2013-11-13 09:32:00,
2013-11-13 03:37:00,19.0,15.1,30.62,South,179,0.0,5.0,84,0.00,,,0.00,meteohub,2013-11-13 09:37:00,
2013-11-13 03:42:00,19.0,15.3,30.62,SW,229,0.0,4.0,85,0.00,,,0.00,meteohub,2013-11-13 09:42:00,
2013-11-13 03:47:00,19.0,15.3,30.62,SSW,211,2.0,5.0,85,0.00,,,0.00,meteohub,2013-11-13 09:47:00,
2013-11-13 03:52:00,19.2,15.4,30.62,West,265,5.0,10.0,85,0.00,,,0.00,meteohub,2013-11-13 09:52:00,
2013-11-13 03:57:00,19.4,15.6,30.62,SW,229,1.0,10.0,85,0.00,,,0.00,meteohub,2013-11-13 09:57:00,
2013-11-13 04:02:00,19.4,15.6,30.62,NW,323,3.0,10.0,85,0.00,,,0.00,meteohub,2013-11-13 10:02:00,
2013-11-13 04:07:00,19.4,15.6,30.61,WNW,291,2.0,7.0,85,0.00,,,0.00,meteohub,2013-11-13 10:07:00,
2013-11-13 04:12:00,19.2,15.3,30.61,SSW,201,5.0,8.0,84,0.00,,,0.00,meteohub,2013-11-13 10:12:00,
2013-11-13 04:17:00,19.2,15.3,30.61,West,274,0.0,8.0,84,0.00,,,0.00,meteohub,2013-11-13 10:17:00,
2013-11-13 04:22:00,19.4,15.6,30.61,SSW,211,1.0,8.0,85,0.00,,,0.00,meteohub,2013-11-13 10:22:00,
2013-11-13 04:27:00,19.2,15.4,30.61,WSW,243,2.0,8.0,85,0.00,,,0.00,meteohub,2013-11-13 10:27:00,
2013-11-13 04:32:00,19.2,15.4,30.60,West,280,0.0,8.0,85,0.00,,,0.00,meteohub,2013-11-13 10:32:00,
2013-11-13 04:37:00,19.2,15.3,30.61,West,273,1.0,8.0,84,0.00,,,0.00,meteohub,2013-11-13 10:37:00,
2013-11-13 04:42:00,19.4,15.6,30.60,SW,219,4.0,9.0,85,0.00,,,0.00,meteohub,2013-11-13 10:42:00,
2013-11-13 04:47:00,19.4,15.4,30.61,WNW,286,5.0,9.0,84,0.00,,,0.00,meteohub,2013-11-13 10:47:00,
2013-11-13 04:52:00,19.6,15.6,30.61,SSW,209,0.0,8.0,84,0.00,,,0.00,meteohub,2013-11-13 10:52:00,
2013-11-13 04:57:00,19.6,15.3,30.60,WNW,292,0.0,8.0,83,0.00,,,0.00,meteohub,2013-11-13 10:57:00,
2013-11-13 05:02:00,19.6,15.3,30.60,SW,225,1.0,7.0,83,0.00,,,0.00,meteohub,2013-11-13 11:02:00,
2013-11-13 05:07:00,19.6,15.6,30.60,WSW,252,3.0,7.0,84,0.00,,,0.00,meteohub,2013-11-13 11:07:00,
2013-11-13 05:12:00,19.6,15.3,30.60,WSW,256,0.0,7.0,83,0.00,,,0.00,meteohub,2013-11-13 11:12:00,
2013-11-13 05:17:00,19.6,14.9,30.59,West,269,0.0,6.0,82,0.00,,,0.00,meteohub,2013-11-13 11:17:00,
2013-11-13 05:22:00,19.6,15.6,30.59,WNW,288,0.0,6.0,84,0.00,,,0.00,meteohub,2013-11-13 11:22:00,
2013-11-13 05:27:00,19.6,15.3,30.59,West,268,0.0,6.0,83,0.00,,,0.00,meteohub,2013-11-13 11:27:00,
2013-11-13 05:32:00,19.6,14.9,30.58,NNW,331,2.0,6.0,82,0.00,,,0.00,meteohub,2013-11-13 11:32:00,
2013-11-13 05:37:00,19.6,15.3,30.59,SW,233,0.0,8.0,83,0.00,,,0.00,meteohub,2013-11-13 11:37:00,
2013-11-13 05:42:00,19.6,14.9,30.58,NW,306,0.0,8.0,82,0.00,,,0.00,meteohub,2013-11-13 11:42:00,
2013-11-13 05:47:00,19.6,15.3,30.58,WSW,252,1.0,9.0,83,0.00,,,0.00,meteohub,2013-11-13 11:47:00,
2013-11-13 05:52:00,19.6,14.9,30.58,WSW,257,4.0,9.0,82,0.00,,,0.00,meteohub,2013-11-13 11:52:00,
2013-11-13 05:57:00,19.8,15.1,30.58,West,270,3.0,9.0,82,0.00,,,0.00,meteohub,2013-11-13 11:57:00,
2013-11-13 06:02:00,19.8,15.8,30.58,WSW,242,2.0,6.0,84,0.00,,,0.00,meteohub,2013-11-13 12:02:00,
2013-11-13 06:07:00,19.8,15.1,30.58,WSW,258,0.0,8.0,82,0.00,,,0.00,meteohub,2013-11-13 12:07:00,
2013-11-13 06:12:00,19.8,15.1,30.57,WSW,248,2.0,8.0,82,0.00,,,0.00,meteohub,2013-11-13 12:12:00,
2013-11-13 06:17:00,19.9,15.6,30.57,South,188,0.0,11.0,83,0.00,,,0.00,meteohub,2013-11-13 12:17:00,
2013-11-13 06:22:00,19.8,15.1,30.57,SW,229,0.0,11.0,82,0.00,,,0.00,meteohub,2013-11-13 12:22:00,
2013-11-13 06:27:00,19.8,15.1,30.57,West,275,7.0,11.0,82,0.00,,,0.00,meteohub,2013-11-13 12:27:00,
2013-11-13 06:32:00,19.8,15.1,30.57,West,274,0.0,8.0,82,0.00,,,0.00,meteohub,2013-11-13 12:32:00,
2013-11-13 06:37:00,19.9,15.3,30.57,WSW,251,0.0,8.0,82,0.00,,,0.00,meteohub,2013-11-13 12:37:00,
2013-11-13 06:42:00,20.1,15.4,30.57,WNW,300,4.0,8.0,82,0.00,,,0.00,meteohub,2013-11-13 12:42:00,
2013-11-13 06:47:00,20.3,15.4,30.56,WSW,237,5.0,9.0,81,0.00,,,0.00,meteohub,2013-11-13 12:47:00,
2013-11-13 06:52:00,20.3,15.4,30.56,WSW,248,0.0,9.0,81,0.00,,,0.00,meteohub,2013-11-13 12:52:00,
2013-11-13 06:57:00,20.5,15.6,30.56,West,278,1.0,9.0,81,0.00,,,0.00,meteohub,2013-11-13 12:57:00,
2013-11-13 07:02:00,20.5,15.6,30.56,SW,236,1.0,11.0,81,0.00,,,0.00,meteohub,2013-11-13 13:02:00,
2013-11-13 07:07:00,20.7,15.4,30.56,NW,323,2.0,11.0,80,0.00,,,0.00,meteohub,2013-11-13 13:07:00,
2013-11-13 07:12:00,20.7,15.8,30.56,West,268,0.0,11.0,81,0.00,,,0.00,meteohub,2013-11-13 13:12:00,
2013-11-13 07:17:00,20.8,15.6,30.56,WSW,250,6.0,9.0,80,0.00,,,0.00,meteohub,2013-11-13 13:17:00,
2013-11-13 07:22:00,21.2,16.0,30.56,WNW,296,2.0,10.0,80,0.00,,,0.00,meteohub,2013-11-13 13:22:00,
2013-11-13 07:27:00,21.6,16.0,30.56,WSW,240,4.0,10.0,79,0.00,,,0.00,meteohub,2013-11-13 13:27:00,
2013-11-13 07:32:00,21.7,16.0,30.56,West,271,5.0,10.0,78,0.00,,,0.00,meteohub,2013-11-13 13:32:00,
2013-11-13 07:37:00,22.1,16.3,30.56,WNW,292,7.0,10.0,78,0.00,,,0.00,meteohub,2013-11-13 13:37:00,
2013-11-13 07:42:00,22.5,16.7,30.56,WSW,252,5.0,11.0,78,0.00,,,0.00,meteohub,2013-11-13 13:42:00,
2013-11-13 07:47:00,22.8,16.3,30.56,WNW,303,2.0,11.0,76,0.00,,,0.00,meteohub,2013-11-13 13:47:00,
2013-11-13 07:52:00,23.4,16.7,30.56,WNW,297,0.0,11.0,75,0.00,,,0.00,meteohub,2013-11-13 13:52:00,
2013-11-13 07:57:00,23.7,16.7,30.56,NW,305,5.0,11.0,74,0.00,,,0.00,meteohub,2013-11-13 13:57:00,
2013-11-13 08:02:00,24.1,16.7,30.56,SW,232,8.0,12.0,73,0.00,,,0.00,meteohub,2013-11-13 14:02:00,
2013-11-13 08:07:00,24.4,16.7,30.56,NW,314,6.0,12.0,72,0.00,,,0.00,meteohub,2013-11-13 14:07:00,
2013-11-13 08:12:00,24.6,17.2,30.56,SW,217,8.0,12.0,73,0.00,,,0.00,meteohub,2013-11-13 14:12:00,
2013-11-13 08:17:00,25.0,16.9,30.55,WNW,303,5.0,12.0,71,0.00,,,0.00,meteohub,2013-11-13 14:17:00,
2013-11-13 08:22:00,25.2,17.1,30.55,West,261,7.0,11.0,71,0.00,,,0.00,meteohub,2013-11-13 14:22:00,
2013-11-13 08:27:00,25.5,17.4,30.54,WNW,300,4.0,11.0,71,0.00,,,0.00,meteohub,2013-11-13 14:27:00,
2013-11-13 08:32:00,25.9,17.4,30.54,WNW,298,5.0,13.0,70,0.00,,,0.00,meteohub,2013-11-13 14:32:00,
2013-11-13 08:37:00,26.2,17.4,30.54,WNW,286,10.0,14.0,69,0.00,,,0.00,meteohub,2013-11-13 14:37:00,
2013-11-13 08:42:00,26.8,17.6,30.53,West,261,5.0,14.0,68,0.00,,,0.00,meteohub,2013-11-13 14:42:00,
2013-11-13 08:47:00,27.0,17.4,30.53,West,263,5.0,14.0,67,0.00,,,0.00,meteohub,2013-11-13 14:47:00,
2013-11-13 08:52:00,27.3,18.1,30.53,NW,311,13.0,14.0,68,0.00,,,0.00,meteohub,2013-11-13 14:52:00,
2013-11-13 08:57:00,27.5,17.6,30.53,West,277,4.0,16.0,66,0.00,,,0.00,meteohub,2013-11-13 14:57:00,
2013-11-13 09:02:00,27.9,17.6,30.52,WNW,287,4.0,16.0,65,0.00,,,0.00,meteohub,2013-11-13 15:02:00,
2013-11-13 09:07:00,28.0,17.8,30.52,West,275,6.0,19.0,65,0.00,,,0.00,meteohub,2013-11-13 15:07:00,
2013-11-13 09:12:00,28.4,18.1,30.52,NW,304,6.0,20.0,65,0.00,,,0.00,meteohub,2013-11-13 15:12:00,
2013-11-13 09:17:00,28.8,18.9,30.51,WNW,302,5.0,20.0,66,0.00,,,0.00,meteohub,2013-11-13 15:17:00,
2013-11-13 09:22:00,29.3,19.0,30.51,West,271,1.0,20.0,65,0.00,,,0.00,meteohub,2013-11-13 15:22:00,
2013-11-13 09:27:00,29.7,19.0,30.51,WSW,247,2.0,14.0,64,0.00,,,0.00,meteohub,2013-11-13 15:27:00,
2013-11-13 09:32:00,30.0,19.4,30.51,NW,311,3.0,16.0,64,0.00,,,0.00,meteohub,2013-11-13 15:32:00,
2013-11-13 09:37:00,30.6,19.0,30.50,WNW,291,2.0,16.0,62,0.00,,,0.00,meteohub,2013-11-13 15:37:00,
2013-11-13 09:42:00,30.7,19.6,30.50,WSW,252,11.0,15.0,63,0.00,,,0.00,meteohub,2013-11-13 15:42:00,
2013-11-13 09:47:00,31.3,19.0,30.50,WNW,283,9.0,15.0,60,0.00,,,0.00,meteohub,2013-11-13 15:47:00,
2013-11-13 09:52:00,31.5,18.0,30.49,WNW,295,9.0,22.0,57,0.00,,,0.00,meteohub,2013-11-13 15:52:00,
2013-11-13 09:57:00,31.6,18.5,30.49,West,269,4.0,22.0,58,0.00,,,0.00,meteohub,2013-11-13 15:57:00,
2013-11-13 10:02:00,32.0,19.2,30.49,SW,233,5.0,22.0,59,0.00,,,0.00,meteohub,2013-11-13 16:02:00,
2013-11-13 10:07:00,32.4,19.9,30.48,West,267,3.0,20.0,60,0.00,,,0.00,meteohub,2013-11-13 16:07:00,
2013-11-13 10:12:00,32.4,18.5,30.48,NNW,327,7.0,22.0,56,0.00,,,0.00,meteohub,2013-11-13 16:12:00,
2013-11-13 10:17:00,32.7,19.2,30.48,WNW,288,6.0,22.0,57,0.00,,,0.00,meteohub,2013-11-13 16:17:00,
2013-11-13 10:22:00,33.1,18.7,30.48,West,281,5.0,22.0,55,0.00,,,0.00,meteohub,2013-11-13 16:22:00,
2013-11-13 10:27:00,33.3,18.0,30.48,WNW,285,12.0,15.0,53,0.00,,,0.00,meteohub,2013-11-13 16:27:00,
2013-11-13 10:32:00,33.3,18.5,30.47,WSW,250,1.0,15.0,54,0.00,,,0.00,meteohub,2013-11-13 16:32:00,
2013-11-13 10:37:00,33.6,19.6,30.47,SSW,201,3.0,15.0,56,0.00,,,0.00,meteohub,2013-11-13 16:37:00,
2013-11-13 10:42:00,34.2,18.9,30.46,WNW,288,7.0,16.0,53,0.00,,,0.00,meteohub,2013-11-13 16:42:00,
2013-11-13 10:47:00,34.2,18.0,30.46,NW,314,5.0,16.0,51,0.00,,,0.00,meteohub,2013-11-13 16:47:00,
2013-11-13 10:52:00,34.0,19.0,30.46,WNW,299,8.0,18.0,54,0.00,,,0.00,meteohub,2013-11-13 16:52:00,
2013-11-13 10:57:00,34.3,19.4,30.45,NNW,331,4.0,18.0,54,0.00,,,0.00,meteohub,2013-11-13 16:57:00,
2013-11-13 11:02:00,34.9,19.0,30.45,SW,220,2.0,16.0,52,0.00,,,0.00,meteohub,2013-11-13 17:02:00,
2013-11-13 11:07:00,35.2,18.0,30.45,South,185,7.0,19.0,49,0.00,,,0.00,meteohub,2013-11-13 17:07:00,
2013-11-13 11:12:00,35.4,19.0,30.45,West,272,16.0,19.0,51,0.00,,,0.00,meteohub,2013-11-13 17:12:00,
2013-11-13 11:17:00,35.4,18.1,30.44,WSW,253,5.0,18.0,49,0.00,,,0.00,meteohub,2013-11-13 17:17:00,
2013-11-13 11:22:00,36.0,18.1,30.44,West,269,4.0,18.0,48,0.00,,,0.00,meteohub,2013-11-13 17:22:00,
2013-11-13 11:27:00,36.3,19.0,30.43,West,279,3.0,18.0,49,0.00,,,0.00,meteohub,2013-11-13 17:27:00,
2013-11-13 11:32:00,36.5,18.7,30.43,WSW,242,8.0,16.0,48,0.00,,,0.00,meteohub,2013-11-13 17:32:00,
2013-11-13 11:37:00,36.1,16.9,30.43,SW,232,10.0,16.0,45,0.00,,,0.00,meteohub,2013-11-13 17:37:00,
2013-11-13 11:42:00,36.3,16.5,30.42,West,281,11.0,20.0,44,0.00,,,0.00,meteohub,2013-11-13 17:42:00,
2013-11-13 11:47:00,36.9,17.4,30.42,WSW,248,8.0,20.0,45,0.00,,,0.00,meteohub,2013-11-13 17:47:00,
2013-11-13 11:52:00,37.2,17.8,30.41,WSW,255,6.0,20.0,45,0.00,,,0.00,meteohub,2013-11-13 17:52:00,
2013-11-13 11:57:00,37.2,17.2,30.41,WSW,244,5.0,18.0,44,0.00,,,0.00,meteohub,2013-11-13 17:57:00,
2013-11-13 12:02:00,37.6,17.1,30.41,NW,304,10.0,13.0,43,0.00,,,0.00,meteohub,2013-11-13 18:02:00,
2013-11-13 12:07:00,37.8,17.8,30.40,NNW,330,2.0,14.0,44,0.00,,,0.00,meteohub,2013-11-13 18:07:00,
2013-11-13 12:12:00,38.1,17.1,30.40,West,271,6.0,14.0,42,0.00,,,0.00,meteohub,2013-11-13 18:12:00,
2013-11-13 12:17:00,38.3,17.8,30.39,SSW,196,6.0,20.0,43,0.00,,,0.00,meteohub,2013-11-13 18:17:00,
2013-11-13 12:22:00,38.7,18.7,30.39,West,269,2.0,20.0,44,0.00,,,0.00,meteohub,2013-11-13 18:22:00,
2013-11-13 12:27:00,38.8,18.9,30.39,West,281,7.0,20.0,44,0.00,,,0.00,meteohub,2013-11-13 18:27:00,
2013-11-13 12:32:00,38.8,18.3,30.39,WNW,292,5.0,20.0,43,0.00,,,0.00,meteohub,2013-11-13 18:32:00,
2013-11-13 12:37:00,38.7,18.1,30.39,West,262,2.0,14.0,43,0.00,,,0.00,meteohub,2013-11-13 18:37:00,
2013-11-13 12:42:00,39.0,18.9,30.39,WNW,283,9.0,14.0,44,0.00,,,0.00,meteohub,2013-11-13 18:42:00,
2013-11-13 12:47:00,39.4,18.7,30.39,West,272,0.0,19.0,43,0.00,,,0.00,meteohub,2013-11-13 18:47:00,
2013-11-13 12:52:00,39.9,18.1,30.38,WSW,248,8.0,19.0,41,0.00,,,0.00,meteohub,2013-11-13 18:52:00,
2013-11-13 12:57:00,40.1,19.4,30.38,SSW,208,0.0,19.0,43,0.00,,,0.00,meteohub,2013-11-13 18:57:00,
2013-11-13 13:02:00,39.9,18.1,30.37,SSE,168,4.0,18.0,41,0.00,,,0.00,meteohub,2013-11-13 19:02:00,
2013-11-13 13:07:00,39.7,18.5,30.37,West,263,4.0,20.0,42,0.00,,,0.00,meteohub,2013-11-13 19:07:00,
2013-11-13 13:12:00,40.1,19.4,30.36,SW,232,4.0,20.0,43,0.00,,,0.00,meteohub,2013-11-13 19:12:00,
2013-11-13 13:17:00,40.3,19.0,30.36,WSW,252,6.0,14.0,42,0.01,,,0.01,meteohub,2013-11-13 19:17:00,
2013-11-13 13:22:00,40.3,19.0,30.35,WNW,284,6.0,14.0,42,0.01,,,0.01,meteohub,2013-11-13 19:22:00,
2013-11-13 13:27:00,40.3,20.1,30.35,WNW,290,6.0,13.0,44,0.01,,,0.01,meteohub,2013-11-13 19:27:00,
2013-11-13 13:32:00,40.5,20.8,30.35,WNW,288,5.0,13.0,45,0.01,,,0.01,meteohub,2013-11-13 19:32:00,
2013-11-13 13:37:00,40.5,19.8,30.35,WSW,252,0.0,13.0,43,0.01,,,0.01,meteohub,2013-11-13 19:37:00,
2013-11-13 13:42:00,40.6,19.4,30.34,West,279,2.0,13.0,42,0.01,,,0.01,meteohub,2013-11-13 19:42:00,
2013-11-13 13:47:00,40.6,19.9,30.34,WSW,238,1.0,22.0,43,0.01,,,0.01,meteohub,2013-11-13 19:47:00,
2013-11-13 13:52:00,40.6,18.9,30.34,West,261,1.0,22.0,41,0.01,,,0.01,meteohub,2013-11-13 19:52:00,
2013-11-13 13:57:00,40.6,19.4,30.33,WNW,292,0.0,16.0,42,0.01,,,0.01,meteohub,2013-11-13 19:57:00,
2013-11-13 14:02:00,40.8,19.6,30.33,SW,234,7.0,18.0,42,0.01,,,0.01,meteohub,2013-11-13 20:02:00,
2013-11-13 14:07:00,40.6,19.4,30.33,SW,220,6.0,18.0,42,0.01,,,0.01,meteohub,2013-11-13 20:07:00,
2013-11-13 14:12:00,40.6,19.9,30.32,SSW,209,1.0,19.0,43,0.00,,,0.01,meteohub,2013-11-13 20:12:00,
2013-11-13 14:17:00,40.6,19.4,30.32,SW,221,3.0,19.0,42,0.00,,,0.01,meteohub,2013-11-13 20:17:00,
2013-11-13 14:22:00,40.6,19.9,30.31,SW,235,2.0,19.0,43,0.00,,,0.01,meteohub,2013-11-13 20:22:00,
2013-11-13 14:27:00,40.6,19.9,30.31,WSW,243,2.0,19.0,43,0.00,,,0.01,meteohub,2013-11-13 20:27:00,
2013-11-13 14:32:00,40.6,20.5,30.31,WSW,244,5.0,19.0,44,0.00,,,0.01,meteohub,2013-11-13 20:32:00,
2013-11-13 14:37:00,40.5,19.8,30.31,WNW,284,0.0,18.0,43,0.00,,,0.01,meteohub,2013-11-13 20:37:00,
2013-11-13 14:42:00,40.5,19.8,30.30,SW,236,5.0,15.0,43,0.00,,,0.01,meteohub,2013-11-13 20:42:00,
2013-11-13 14:47:00,40.5,19.2,30.30,SW,216,4.0,16.0,42,0.00,,,0.01,meteohub,2013-11-13 20:47:00,
2013-11-13 14:52:00,40.5,19.8,30.30,SW,229,3.0,16.0,43,0.00,,,0.01,meteohub,2013-11-13 20:52:00,
2013-11-13 14:57:00,40.6,21.0,30.29,South,172,4.0,16.0,45,0.00,,,0.01,meteohub,2013-11-13 20:57:00,
2013-11-13 15:02:00,40.6,20.5,30.30,WSW,248,6.0,18.0,44,0.00,,,0.01,meteohub,2013-11-13 21:02:00,
2013-11-13 15:07:00,40.5,20.8,30.29,South,182,2.0,18.0,45,0.00,,,0.01,meteohub,2013-11-13 21:07:00,
2013-11-13 15:12:00,40.5,19.8,30.29,SSW,200,3.0,18.0,43,0.00,,,0.01,meteohub,2013-11-13 21:12:00,
2013-11-13 15:17:00,40.3,19.6,30.29,WSW,239,1.0,15.0,43,0.00,,,0.01,meteohub,2013-11-13 21:17:00,
2013-11-13 15:22:00,40.3,20.1,30.29,West,271,6.0,16.0,44,0.00,,,0.01,meteohub,2013-11-13 21:22:00,
2013-11-13 15:27:00,40.1,20.5,30.28,WNW,292,4.0,20.0,45,0.00,,,0.01,meteohub,2013-11-13 21:27:00,
2013-11-13 15:32:00,39.9,20.8,30.28,WSW,240,4.0,20.0,46,0.00,,,0.01,meteohub,2013-11-13 21:32:00,
2013-11-13 15:37:00,39.9,20.3,30.28,West,279,4.0,20.0,45,0.00,,,0.01,meteohub,2013-11-13 21:37:00,
2013-11-13 15:42:00,39.7,21.2,30.27,SSW,197,1.0,12.0,47,0.00,,,0.01,meteohub,2013-11-13 21:42:00,
2013-11-13 15:47:00,39.4,21.7,30.27,WSW,242,0.0,16.0,49,0.00,,,0.01,meteohub,2013-11-13 21:47:00,
2013-11-13 15:52:00,39.0,22.5,30.27,SW,230,2.0,16.0,51,0.00,,,0.01,meteohub,2013-11-13 21:52:00,
2013-11-13 15:57:00,38.7,22.1,30.27,SW,230,0.0,16.0,51,0.00,,,0.01,meteohub,2013-11-13 21:57:00,
2013-11-13 16:02:00,38.5,22.5,30.27,SW,229,4.0,14.0,52,0.00,,,0.01,meteohub,2013-11-13 22:02:00,
2013-11-13 16:08:00,38.1,22.5,30.26,South,182,1.0,14.0,53,0.00,,,0.01,meteohub,2013-11-13 22:08:00,
2013-11-13 16:13:00,37.8,22.1,30.26,NNW,337,2.0,14.0,53,0.00,,,0.01,meteohub,2013-11-13 22:13:00,
2013-11-13 16:18:00,37.6,22.5,30.26,West,276,4.0,18.0,54,0.00,,,0.01,meteohub,2013-11-13 22:18:00,
2013-11-13 16:23:00,37.2,22.5,30.26,South,185,2.0,18.0,55,0.00,,,0.01,meteohub,2013-11-13 22:23:00,
2013-11-13 16:28:00,37.0,22.5,30.26,SW,232,3.0,18.0,55,0.00,,,0.01,meteohub,2013-11-13 22:28:00,
2013-11-13 16:33:00,36.9,22.6,30.26,SSW,201,0.0,18.0,56,0.00,,,0.01,meteohub,2013-11-13 22:33:00,
2013-11-13 16:38:00,36.7,22.5,30.26,SSW,213,6.0,11.0,56,0.00,,,0.01,meteohub,2013-11-13 22:38:00,
2013-11-13 16:43:00,36.7,22.5,30.26,SW,228,1.0,13.0,56,0.00,,,0.01,meteohub,2013-11-13 22:43:00,
2013-11-13 16:48:00,36.5,22.3,30.25,West,279,1.0,13.0,56,0.00,,,0.01,meteohub,2013-11-13 22:48:00,
2013-11-13 16:53:00,36.3,22.5,30.25,SW,220,1.0,13.0,57,0.00,,,0.01,meteohub,2013-11-13 22:53:00,
2013-11-13 16:58:00,36.3,22.5,30.25,WSW,258,0.0,12.0,57,0.00,,,0.01,meteohub,2013-11-13 22:58:00,
2013-11-13 17:03:00,36.1,22.8,30.25,SSW,194,0.0,16.0,58,0.00,,,0.01,meteohub,2013-11-13 23:03:00,
2013-11-13 17:08:00,36.1,22.8,30.25,WSW,242,1.0,16.0,58,0.00,,,0.01,meteohub,2013-11-13 23:08:00,
2013-11-13 17:13:00,36.1,22.8,30.25,South,186,13.0,16.0,58,0.00,,,0.01,meteohub,2013-11-13 23:13:00,
2013-11-13 17:19:00,36.1,22.8,30.25,SW,214,0.0,15.0,58,0.00,,,0.01,meteohub,2013-11-13 23:19:00,
2013-11-13 17:24:00,36.1,22.8,30.25,WNW,297,1.0,13.0,58,0.00,,,0.01,meteohub,2013-11-13 23:24:00,
2013-11-13 17:29:00,36.0,23.0,30.25,SSW,209,0.0,13.0,59,0.00,,,0.01,meteohub,2013-11-13 23:29:00,
2013-11-13 17:34:00,36.0,22.6,30.25,SW,234,0.0,11.0,58,0.00,,,0.01,meteohub,2013-11-13 23:34:00,
2013-11-13 17:39:00,36.0,23.0,30.25,East,81,4.0,12.0,59,0.00,,,0.01,meteohub,2013-11-13 23:39:00,
2013-11-13 17:44:00,36.0,22.6,30.25,WSW,246,4.0,16.0,58,0.00,,,0.01,meteohub,2013-11-13 23:44:00,
2013-11-13 17:49:00,36.0,22.6,30.25,NW,310,9.0,16.0,58,0.00,,,0.01,meteohub,2013-11-13 23:49:00,
2013-11-13 17:54:00,36.0,22.6,30.24,WSW,242,4.0,19.0,58,0.00,,,0.01,meteohub,2013-11-13 23:54:00,
2013-11-13 17:59:00,36.0,22.6,30.25,SSE,157,1.0,19.0,58,0.00,,,0.01,meteohub,2013-11-13 23:59:00,
2013-11-13 18:04:00,35.8,22.5,30.24,SSW,196,2.0,15.0,58,0.00,,,0.01,meteohub,2013-11-14 00:04:00,
2013-11-13 18:09:00,35.8,22.8,30.24,SSW,199,2.0,16.0,59,0.00,,,0.00,meteohub,2013-11-14 00:09:00,
2013-11-13 18:14:00,35.4,22.5,30.24,SSW,202,1.0,18.0,59,0.00,,,0.00,meteohub,2013-11-14 00:14:00,
2013-11-13 18:19:00,35.2,22.8,30.23,South,188,1.0,18.0,60,0.00,,,0.00,meteohub,2013-11-14 00:19:00,
2013-11-13 18:24:00,35.4,23.0,30.23,South,183,0.0,22.0,60,0.00,,,0.00,meteohub,2013-11-14 00:24:00,
2013-11-13 18:29:00,35.4,22.5,30.23,WNW,293,6.0,22.0,59,0.00,,,0.00,meteohub,2013-11-14 00:29:00,
2013-11-13 18:34:00,35.4,23.0,30.22,WNW,284,0.0,12.0,60,0.00,,,0.00,meteohub,2013-11-14 00:34:00,
2013-11-13 18:40:00,35.2,22.8,30.22,West,259,6.0,16.0,60,0.00,,,0.00,meteohub,2013-11-14 00:40:00,
2013-11-13 18:45:00,35.4,23.0,30.22,SW,228,2.0,16.0,60,0.00,,,0.00,meteohub,2013-11-14 00:45:00,
2013-11-13 18:50:00,35.2,22.8,30.22,SW,230,11.0,16.0,60,0.00,,,0.00,meteohub,2013-11-14 00:50:00,
2013-11-13 18:55:00,35.2,22.8,30.22,WSW,240,4.0,14.0,60,0.00,,,0.00,meteohub,2013-11-14 00:55:00,
2013-11-13 19:00:00,35.2,22.3,30.21,North,355,1.0,14.0,59,0.00,,,0.00,meteohub,2013-11-14 01:00:00,
2013-11-13 19:05:00,35.2,22.3,30.21,North,350,7.0,11.0,59,0.00,,,0.00,meteohub,2013-11-14 01:05:00,
2013-11-13 19:10:00,35.4,22.1,30.21,West,262,5.0,14.0,58,0.00,,,0.00,meteohub,2013-11-14 01:10:00,
2013-11-13 19:15:00,35.6,22.3,30.21,SW,234,4.0,14.0,58,0.00,,,0.00,meteohub,2013-11-14 01:15:00,
2013-11-13 19:20:00,35.6,21.9,30.21,SW,225,6.0,15.0,57,0.00,,,0.00,meteohub,2013-11-14 01:20:00,
2013-11-13 19:25:00,35.6,21.9,30.21,West,279,5.0,15.0,57,0.00,,,0.00,meteohub,2013-11-14 01:25:00,
2013-11-13 19:30:00,35.8,21.6,30.21,WNW,287,5.0,15.0,56,0.00,,,0.00,meteohub,2013-11-14 01:30:00,
2013-11-13 19:35:00,36.0,21.7,30.22,WSW,248,0.0,15.0,56,0.00,,,0.00,meteohub,2013-11-14 01:35:00,
2013-11-13 19:40:00,36.0,21.4,30.21,West,281,5.0,15.0,55,0.00,,,0.00,meteohub,2013-11-14 01:40:00,
2013-11-13 19:45:00,36.0,21.4,30.21,WSW,240,8.0,15.0,55,0.00,,,0.00,meteohub,2013-11-14 01:45:00,
2013-11-13 19:50:00,36.0,21.4,30.21,NNE,15,0.0,15.0,55,0.00,,,0.00,meteohub,2013-11-14 01:50:00,
2013-11-13 19:55:00,35.8,21.2,30.21,SW,232,6.0,15.0,55,0.00,,,0.00,meteohub,2013-11-14 01:55:00,
2013-11-13 20:01:00,35.8,21.2,30.21,WSW,249,2.0,15.0,55,0.00,,,0.00,meteohub,2013-11-14 02:01:00,
2013-11-13 20:06:00,35.8,21.2,30.21,West,275,2.0,15.0,55,0.00,,,0.00,meteohub,2013-11-14 02:06:00,
2013-11-13 20:11:00,35.8,20.8,30.20,North,355,1.0,15.0,54,0.00,,,0.00,meteohub,2013-11-14 02:11:00,
2013-11-13 20:16:00,35.6,20.7,30.20,West,272,5.0,12.0,54,0.00,,,0.00,meteohub,2013-11-14 02:16:00,
2013-11-13 20:21:00,35.8,20.8,30.20,West,263,3.0,20.0,54,0.00,,,0.00,meteohub,2013-11-14 02:21:00,
2013-11-13 20:26:00,35.8,20.8,30.20,West,269,3.0,20.0,54,0.00,,,0.00,meteohub,2013-11-14 02:26:00,
2013-11-13 20:31:00,35.4,20.8,30.19,West,259,4.0,16.0,55,0.00,,,0.00,meteohub,2013-11-14 02:31:00,
2013-11-13 20:36:00,35.4,20.8,30.19,SW,234,4.0,21.0,55,0.00,,,0.00,meteohub,2013-11-14 02:36:00,
2013-11-13 20:41:00,35.4,20.5,30.20,WSW,248,10.0,21.0,54,0.00,,,0.00,meteohub,2013-11-14 02:41:00,
2013-11-13 20:46:00,35.6,21.0,30.20,West,276,7.0,19.0,55,0.00,,,0.00,meteohub,2013-11-14 02:46:00,
2013-11-13 20:51:00,35.6,20.7,30.19,SW,225,7.0,19.0,54,0.00,,,0.00,meteohub,2013-11-14 02:51:00,
2013-11-13 20:56:00,35.4,21.2,30.19,WSW,243,7.0,19.0,56,0.00,,,0.00,meteohub,2013-11-14 02:56:00,
2013-11-13 21:01:00,35.2,20.3,30.19,SW,216,4.0,19.0,54,0.00,,,0.00,meteohub,2013-11-14 03:01:00,
2013-11-13 21:06:00,35.2,20.7,30.19,SW,232,6.0,19.0,55,0.00,,,0.00,meteohub,2013-11-14 03:06:00,
2013-11-13 21:12:00,35.4,20.5,30.19,SW,224,6.0,19.0,54,0.00,,,0.00,meteohub,2013-11-14 03:12:00,
2013-11-13 21:17:00,35.4,20.5,30.18,SW,229,5.0,19.0,54,0.00,,,0.00,meteohub,2013-11-14 03:17:00,
2013-11-13 21:22:00,35.4,20.8,30.19,SSW,201,8.0,19.0,55,0.00,,,0.00,meteohub,2013-11-14 03:22:00,
2013-11-13 21:27:00,35.2,20.7,30.18,NW,311,2.0,18.0,55,0.00,,,0.00,meteohub,2013-11-14 03:27:00,
2013-11-13 21:32:00,35.2,20.7,30.18,SW,229,13.0,18.0,55,0.00,,,0.00,meteohub,2013-11-14 03:32:00,
2013-11-13 21:37:00,35.2,20.7,30.18,NW,304,5.0,19.0,55,0.00,,,0.00,meteohub,2013-11-14 03:37:00,
2013-11-13 21:42:00,35.2,21.2,30.19,SSW,193,9.0,19.0,56,0.00,,,0.00,meteohub,2013-11-14 03:42:00,
2013-11-13 21:47:00,35.1,21.0,30.19,WSW,254,9.0,19.0,56,0.00,,,0.00,meteohub,2013-11-14 03:47:00,
2013-11-13 21:52:00,35.1,21.0,30.19,West,273,4.0,23.0,56,0.00,,,0.00,meteohub,2013-11-14 03:52:00,
2013-11-13 21:57:00,35.1,21.0,30.18,SSW,207,5.0,23.0,56,0.00,,,0.00,meteohub,2013-11-14 03:57:00,
2013-11-13 22:02:00,34.9,20.8,30.19,WNW,297,5.0,23.0,56,0.00,,,0.00,meteohub,2013-11-14 04:02:00,
2013-11-13 22:07:00,34.9,21.2,30.19,SSW,212,8.0,21.0,57,0.00,,,0.00,meteohub,2013-11-14 04:07:00,
2013-11-13 22:12:00,34.9,20.8,30.19,West,279,2.0,21.0,56,0.00,,,0.00,meteohub,2013-11-14 04:12:00,
2013-11-13 22:17:00,34.7,21.0,30.19,WSW,240,2.0,18.0,57,0.00,,,0.00,meteohub,2013-11-14 04:17:00,
2013-11-13 22:22:00,34.5,20.8,30.19,NNW,339,8.0,18.0,57,0.00,,,0.00,meteohub,2013-11-14 04:22:00,
2013-11-13 22:27:00,34.3,21.0,30.19,WSW,257,3.0,16.0,58,0.00,,,0.00,meteohub,2013-11-14 04:27:00,
2013-11-13 22:32:00,34.3,21.0,30.19,SW,234,7.0,14.0,58,0.00,,,0.00,meteohub,2013-11-14 04:32:00,
2013-11-13 22:37:00,34.2,20.8,30.19,WSW,248,1.0,13.0,58,0.00,,,0.00,meteohub,2013-11-14 04:37:00,
2013-11-13 22:42:00,34.2,20.8,30.19,WSW,240,2.0,13.0,58,0.00,,,0.00,meteohub,2013-11-14 04:42:00,
2013-11-13 22:47:00,34.2,20.8,30.18,SSW,199,11.0,13.0,58,0.00,,,0.00,meteohub,2013-11-14 04:47:00,
2013-11-13 22:52:00,34.2,20.8,30.18,South,173,7.0,12.0,58,0.00,,,0.00,meteohub,2013-11-14 04:52:00,
2013-11-13 22:57:00,34.0,21.2,30.18,WNW,292,6.0,12.0,59,0.00,,,0.00,meteohub,2013-11-14 04:57:00,
2013-11-13 23:01:00,34.0,21.2,30.18,WNW,294,3.0,12.0,59,0.00,,,0.00,meteohub,2013-11-14 05:01:00,
2013-11-13 23:02:00,34.0,21.2,30.18,West,265,5.0,12.0,59,0.00,,,0.00,meteohub,2013-11-14 05:02:00,
2013-11-13 23:04:00,34.0,21.2,30.18,NNW,344,2.0,12.0,59,0.00,,,0.00,meteohub,2013-11-14 05:04:00,
2013-11-13 23:09:00,33.8,21.4,30.18,NW,305,2.0,12.0,60,0.00,,,0.00,meteohub,2013-11-14 05:09:00,
2013-11-13 23:14:00,33.8,21.4,30.18,WSW,238,2.0,11.0,60,0.00,,,0.00,meteohub,2013-11-14 05:14:00,
2013-11-13 23:19:00,33.8,21.0,30.18,West,261,1.0,18.0,59,0.00,,,0.00,meteohub,2013-11-14 05:19:00,
2013-11-13 23:24:00,33.8,21.0,30.18,SW,233,5.0,18.0,59,0.00,,,0.00,meteohub,2013-11-14 05:24:00,
2013-11-13 23:29:00,33.8,21.0,30.18,WNW,283,3.0,11.0,59,0.00,,,0.00,meteohub,2013-11-14 05:29:00,
2013-11-13 23:35:00,33.8,21.0,30.17,WNW,284,3.0,12.0,59,0.00,,,0.00,meteohub,2013-11-14 05:35:00,
2013-11-13 23:40:00,33.6,20.8,30.18,West,269,4.0,14.0,59,0.00,,,0.00,meteohub,2013-11-14 05:40:00,
2013-11-13 23:45:00,34.0,21.2,30.17,West,259,4.0,14.0,59,0.00,,,0.00,meteohub,2013-11-14 05:45:00,
2013-11-13 23:50:00,34.0,21.2,30.17,WSW,252,7.0,14.0,59,0.00,,,0.00,meteohub,2013-11-14 05:50:00,
2013-11-13 23:55:00,34.0,21.2,30.17,WSW,246,7.0,13.0,59,0.00,,,0.00,meteohub,2013-11-14 05:55:00,